Year,Month,Day,Hour,Minute,Value (Times are PST for temperature in C)
2015,07,01,00,00,17.00
2015,07,01,00,01,17.00
2015,07,01,00,02,16.90
2015,07,01,00,03,16.90
2015,07,01,00,04,16.90
2015,07,01,00,05,16.90
2015,07,01,00,06,16.90
2015,07,01,00,07,16.90
2015,07,01,00,08,16.90
2015,07,01,00,09,16.90
2015,07,01,00,10,16.80
2015,07,01,00,11,16.80
2015,07,01,00,12,16.80
2015,07,01,00,13,16.80
2015,07,01,00,14,16.80
2015,07,01,00,15,16.80
2015,07,01,00,16,16.80
2015,07,01,00,17,16.80
2015,07,01,00,18,16.90
2015,07,01,00,19,16.90
2015,07,01,00,20,17.00
2015,07,01,00,21,17.00
2015,07,01,00,22,17.00
2015,07,01,00,23,16.90
2015,07,01,00,24,16.80
2015,07,01,00,25,16.70
2015,07,01,00,26,16.60
2015,07,01,00,27,16.50
2015,07,01,00,28,16.40
2015,07,01,00,29,16.40
2015,07,01,00,30,16.30
2015,07,01,00,31,16.10
2015,07,01,00,32,16.00
2015,07,01,00,33,15.90
2015,07,01,00,34,15.70
2015,07,01,00,35,15.60
2015,07,01,00,36,15.50
2015,07,01,00,37,15.50
2015,07,01,00,38,15.40
2015,07,01,00,39,15.30
2015,07,01,00,40,15.20
2015,07,01,00,41,15.10
2015,07,01,00,42,15.10
2015,07,01,00,43,15.00
2015,07,01,00,44,14.90
2015,07,01,00,45,14.80
2015,07,01,00,46,14.80
2015,07,01,00,47,14.70
2015,07,01,00,48,14.60
2015,07,01,00,49,14.50
2015,07,01,00,50,14.40
2015,07,01,00,51,14.40
2015,07,01,00,52,14.30
2015,07,01,00,53,14.20
2015,07,01,00,54,14.10
2015,07,01,00,55,14.10
2015,07,01,00,56,14.00
2015,07,01,00,57,14.00
2015,07,01,00,58,13.90
2015,07,01,00,59,13.90
2015,07,01,01,00,13.90
2015,07,01,01,01,13.80
2015,07,01,01,02,13.80
2015,07,01,01,03,13.80
2015,07,01,01,04,13.80
2015,07,01,01,05,13.80
2015,07,01,01,06,13.70
2015,07,01,01,07,13.70
2015,07,01,01,08,13.70
2015,07,01,01,09,13.70
2015,07,01,01,10,13.60
2015,07,01,01,11,13.60
2015,07,01,01,12,13.60
2015,07,01,01,13,13.60
2015,07,01,01,14,13.60
2015,07,01,01,15,13.50
2015,07,01,01,16,13.50
2015,07,01,01,17,13.50
2015,07,01,01,18,13.40
2015,07,01,01,19,13.40
2015,07,01,01,20,13.40
2015,07,01,01,21,13.40
2015,07,01,01,22,13.40
2015,07,01,01,23,13.40
2015,07,01,01,24,13.40
2015,07,01,01,25,13.40
2015,07,01,01,26,13.40
2015,07,01,01,27,13.40
2015,07,01,01,28,13.40
2015,07,01,01,29,13.40
2015,07,01,01,30,13.40
2015,07,01,01,31,13.50
2015,07,01,01,32,13.50
2015,07,01,01,33,13.50
2015,07,01,01,34,13.50
2015,07,01,01,35,13.50
2015,07,01,01,36,13.50
2015,07,01,01,37,13.50
2015,07,01,01,38,13.50
2015,07,01,01,39,13.50
2015,07,01,01,40,13.50
2015,07,01,01,41,13.60
2015,07,01,01,42,13.60
2015,07,01,01,43,13.60
2015,07,01,01,44,13.60
2015,07,01,01,45,13.60
2015,07,01,01,46,13.60
2015,07,01,01,47,13.60
2015,07,01,01,48,13.60
2015,07,01,01,49,13.60
2015,07,01,01,50,13.60
2015,07,01,01,51,13.70
2015,07,01,01,52,13.70
2015,07,01,01,53,13.70
2015,07,01,01,54,13.80
2015,07,01,01,55,13.80
2015,07,01,01,56,13.80
2015,07,01,01,57,13.80
2015,07,01,01,58,13.80
2015,07,01,01,59,13.80
2015,07,01,02,00,13.80
2015,07,01,02,01,13.80
2015,07,01,02,02,13.80
2015,07,01,02,03,13.80
2015,07,01,02,04,13.80
2015,07,01,02,05,13.80
2015,07,01,02,06,13.80
2015,07,01,02,07,13.80
2015,07,01,02,08,13.80
2015,07,01,02,09,13.80
2015,07,01,02,10,13.80
2015,07,01,02,11,13.80
2015,07,01,02,12,13.80
2015,07,01,02,13,13.80
2015,07,01,02,14,13.80
2015,07,01,02,15,13.80
2015,07,01,02,16,13.80
2015,07,01,02,17,13.80
2015,07,01,02,18,13.80
2015,07,01,02,19,13.80
2015,07,01,02,20,13.80
2015,07,01,02,21,13.80
2015,07,01,02,22,13.80
2015,07,01,02,23,13.80
2015,07,01,02,24,13.80
2015,07,01,02,25,13.90
2015,07,01,02,26,13.90
2015,07,01,02,27,13.90
2015,07,01,02,28,13.90
2015,07,01,02,29,13.90
2015,07,01,02,30,13.90
2015,07,01,02,31,13.90
2015,07,01,02,32,13.90
2015,07,01,02,33,13.90
2015,07,01,02,34,14.00
2015,07,01,02,35,14.00
2015,07,01,02,36,14.00
2015,07,01,02,37,14.00
2015,07,01,02,38,14.00
2015,07,01,02,39,14.00
2015,07,01,02,40,14.00
2015,07,01,02,41,14.00
2015,07,01,02,42,14.00
2015,07,01,02,43,14.00
2015,07,01,02,44,14.00
2015,07,01,02,45,14.00
2015,07,01,02,46,14.10
2015,07,01,02,47,14.10
2015,07,01,02,48,14.10
2015,07,01,02,49,14.10
2015,07,01,02,50,14.10
2015,07,01,02,51,14.10
2015,07,01,02,52,14.10
2015,07,01,02,53,14.10
2015,07,01,02,54,14.10
2015,07,01,02,55,14.20
2015,07,01,02,56,14.20
2015,07,01,02,57,14.20
2015,07,01,02,58,14.20
2015,07,01,02,59,14.20
2015,07,01,03,00,14.20
2015,07,01,03,01,14.20
2015,07,01,03,02,14.20
2015,07,01,03,03,14.20
2015,07,01,03,04,14.20
2015,07,01,03,05,14.20
2015,07,01,03,06,14.30
2015,07,01,03,07,14.30
2015,07,01,03,08,14.30
2015,07,01,03,09,14.30
2015,07,01,03,10,14.30
2015,07,01,03,11,14.30
2015,07,01,03,12,14.30
2015,07,01,03,13,14.30
2015,07,01,03,14,14.30
2015,07,01,03,15,14.40
2015,07,01,03,16,14.40
2015,07,01,03,17,14.40
2015,07,01,03,18,14.40
2015,07,01,03,19,14.40
2015,07,01,03,20,14.50
2015,07,01,03,21,14.50
2015,07,01,03,22,14.50
2015,07,01,03,23,14.60
2015,07,01,03,24,14.60
2015,07,01,03,25,14.60
2015,07,01,03,26,14.70
2015,07,01,03,27,14.70
2015,07,01,03,28,14.70
2015,07,01,03,29,14.70
2015,07,01,03,30,14.70
2015,07,01,03,31,14.70
2015,07,01,03,32,14.80
2015,07,01,03,33,14.80
2015,07,01,03,34,14.80
2015,07,01,03,35,14.80
2015,07,01,03,36,14.90
2015,07,01,03,37,14.90
2015,07,01,03,38,15.00
2015,07,01,03,39,15.00
2015,07,01,03,40,15.00
2015,07,01,03,41,15.00
2015,07,01,03,42,15.10
2015,07,01,03,43,15.10
2015,07,01,03,44,15.10
2015,07,01,03,45,15.10
2015,07,01,03,46,15.10
2015,07,01,03,47,15.10
2015,07,01,03,48,15.10
2015,07,01,03,49,15.10
2015,07,01,03,50,15.10
2015,07,01,03,51,15.10
2015,07,01,03,52,15.10
2015,07,01,03,53,15.10
2015,07,01,03,54,15.10
2015,07,01,03,55,15.10
2015,07,01,03,56,15.10
2015,07,01,03,57,15.10
2015,07,01,03,58,15.10
2015,07,01,03,59,15.10
2015,07,01,04,00,15.10
2015,07,01,04,01,15.10
2015,07,01,04,02,15.10
2015,07,01,04,03,15.10
2015,07,01,04,04,15.10
2015,07,01,04,05,15.10
2015,07,01,04,06,15.10
2015,07,01,04,07,15.10
2015,07,01,04,08,15.10
2015,07,01,04,09,15.10
2015,07,01,04,10,15.10
2015,07,01,04,11,15.10
2015,07,01,04,12,15.00
2015,07,01,04,13,15.10
2015,07,01,04,14,15.10
2015,07,01,04,15,15.00
2015,07,01,04,16,15.10
2015,07,01,04,17,15.10
2015,07,01,04,18,15.10
2015,07,01,04,19,15.10
2015,07,01,04,20,15.10
2015,07,01,04,21,15.10
2015,07,01,04,22,15.10
2015,07,01,04,23,15.10
2015,07,01,04,24,15.10
2015,07,01,04,25,15.10
2015,07,01,04,26,15.10
2015,07,01,04,27,15.10
2015,07,01,04,28,15.10
2015,07,01,04,29,15.10
2015,07,01,04,30,15.10
2015,07,01,04,31,15.10
2015,07,01,04,32,15.10
2015,07,01,04,33,15.00
2015,07,01,04,34,15.00
2015,07,01,04,35,14.90
2015,07,01,04,36,14.90
2015,07,01,04,37,14.90
2015,07,01,04,38,14.90
2015,07,01,04,39,14.90
2015,07,01,04,40,14.80
2015,07,01,04,41,14.80
2015,07,01,04,42,14.80
2015,07,01,04,43,14.80
2015,07,01,04,44,14.80
2015,07,01,04,45,14.80
2015,07,01,04,46,14.80
2015,07,01,04,47,14.90
2015,07,01,04,48,14.90
2015,07,01,04,49,14.90
2015,07,01,04,50,14.90
2015,07,01,04,51,15.00
2015,07,01,04,52,15.00
2015,07,01,04,53,15.10
2015,07,01,04,54,15.10
2015,07,01,04,55,15.20
2015,07,01,04,56,15.20
2015,07,01,04,57,15.20
2015,07,01,04,58,15.30
2015,07,01,04,59,15.30
2015,07,01,05,00,15.30
2015,07,01,05,01,15.40
2015,07,01,05,02,15.40
2015,07,01,05,03,15.40
2015,07,01,05,04,15.40
2015,07,01,05,05,15.40
2015,07,01,05,06,15.50
2015,07,01,05,07,15.50
2015,07,01,05,08,15.50
2015,07,01,05,09,15.50
2015,07,01,05,10,15.50
2015,07,01,05,11,15.50
2015,07,01,05,12,15.50
2015,07,01,05,13,15.50
2015,07,01,05,14,15.50
2015,07,01,05,15,15.50
2015,07,01,05,16,15.40
2015,07,01,05,17,15.40
2015,07,01,05,18,15.40
2015,07,01,05,19,15.40
2015,07,01,05,20,15.30
2015,07,01,05,21,15.30
2015,07,01,05,22,15.30
2015,07,01,05,23,15.30
2015,07,01,05,24,15.20
2015,07,01,05,25,15.10
2015,07,01,05,26,15.00
2015,07,01,05,27,14.80
2015,07,01,05,28,14.60
2015,07,01,05,29,14.50
2015,07,01,05,30,14.30
2015,07,01,05,31,14.20
2015,07,01,05,32,14.10
2015,07,01,05,33,14.00
2015,07,01,05,34,13.90
2015,07,01,05,35,13.80
2015,07,01,05,36,13.80
2015,07,01,05,37,13.80
2015,07,01,05,38,13.70
2015,07,01,05,39,13.70
2015,07,01,05,40,13.70
2015,07,01,05,41,13.70
2015,07,01,05,42,13.70
2015,07,01,05,43,13.70
2015,07,01,05,44,13.70
2015,07,01,05,45,13.70
2015,07,01,05,46,13.70
2015,07,01,05,47,13.80
2015,07,01,05,48,13.80
2015,07,01,05,49,13.80
2015,07,01,05,50,13.90
2015,07,01,05,51,13.90
2015,07,01,05,52,14.00
2015,07,01,05,53,14.00
2015,07,01,05,54,14.00
2015,07,01,05,55,14.10
2015,07,01,05,56,14.10
2015,07,01,05,57,14.10
2015,07,01,05,58,14.10
2015,07,01,05,59,14.10
2015,07,01,06,00,14.20
2015,07,01,06,01,14.20
2015,07,01,06,02,14.20
2015,07,01,06,03,14.20
2015,07,01,06,04,14.20
2015,07,01,06,05,14.30
2015,07,01,06,06,14.30
2015,07,01,06,07,14.30
2015,07,01,06,08,14.40
2015,07,01,06,09,14.40
2015,07,01,06,10,14.40
2015,07,01,06,11,14.50
2015,07,01,06,12,14.50
2015,07,01,06,13,14.60
2015,07,01,06,14,14.60
2015,07,01,06,15,14.70
2015,07,01,06,16,14.80
2015,07,01,06,17,14.80
2015,07,01,06,18,14.90
2015,07,01,06,19,15.00
2015,07,01,06,20,15.10
2015,07,01,06,21,15.20
2015,07,01,06,22,15.30
2015,07,01,06,23,15.30
2015,07,01,06,24,15.40
2015,07,01,06,25,15.50
2015,07,01,06,26,15.60
2015,07,01,06,27,15.70
2015,07,01,06,28,15.70
2015,07,01,06,29,15.80
2015,07,01,06,30,15.90
2015,07,01,06,31,15.90
2015,07,01,06,32,16.00
2015,07,01,06,33,16.10
2015,07,01,06,34,16.20
2015,07,01,06,35,16.30
2015,07,01,06,36,16.30
2015,07,01,06,37,16.40
2015,07,01,06,38,16.50
2015,07,01,06,39,16.60
2015,07,01,06,40,16.70
2015,07,01,06,41,16.80
2015,07,01,06,42,16.90
2015,07,01,06,43,17.00
2015,07,01,06,44,17.00
2015,07,01,06,45,17.10
2015,07,01,06,46,17.10
2015,07,01,06,47,17.20
2015,07,01,06,48,17.20
2015,07,01,06,49,17.30
2015,07,01,06,50,17.30
2015,07,01,06,51,17.30
2015,07,01,06,52,17.30
2015,07,01,06,53,17.40
2015,07,01,06,54,17.50
2015,07,01,06,55,17.50
2015,07,01,06,56,17.60
2015,07,01,06,57,17.60
2015,07,01,06,58,17.70
2015,07,01,06,59,17.80
2015,07,01,07,00,17.90
2015,07,01,07,01,18.00
2015,07,01,07,02,18.00
2015,07,01,07,03,18.10
2015,07,01,07,04,18.20
2015,07,01,07,05,18.20
2015,07,01,07,06,18.30
2015,07,01,07,07,18.30
2015,07,01,07,08,18.40
2015,07,01,07,09,18.40
2015,07,01,07,10,18.40
2015,07,01,07,11,18.40
2015,07,01,07,12,18.50
2015,07,01,07,13,18.50
2015,07,01,07,14,18.50
2015,07,01,07,15,18.50
2015,07,01,07,16,18.60
2015,07,01,07,17,18.60
2015,07,01,07,18,18.60
2015,07,01,07,19,18.60
2015,07,01,07,20,18.60
2015,07,01,07,21,18.60
2015,07,01,07,22,18.70
2015,07,01,07,23,18.70
2015,07,01,07,24,18.70
2015,07,01,07,25,18.70
2015,07,01,07,26,18.70
2015,07,01,07,27,18.70
2015,07,01,07,28,18.70
2015,07,01,07,29,18.70
2015,07,01,07,30,18.70
2015,07,01,07,31,18.60
2015,07,01,07,32,18.60
2015,07,01,07,33,18.70
2015,07,01,07,34,18.70
2015,07,01,07,35,18.70
2015,07,01,07,36,18.70
2015,07,01,07,37,18.80
2015,07,01,07,38,18.80
2015,07,01,07,39,18.90
2015,07,01,07,40,18.90
2015,07,01,07,41,19.00
2015,07,01,07,42,19.00
2015,07,01,07,43,19.10
2015,07,01,07,44,19.20
2015,07,01,07,45,19.20
2015,07,01,07,46,19.30
2015,07,01,07,47,19.30
2015,07,01,07,48,19.30
2015,07,01,07,49,19.30
2015,07,01,07,50,19.30
2015,07,01,07,51,19.30
2015,07,01,07,52,19.30
2015,07,01,07,53,19.20
2015,07,01,07,54,19.00
2015,07,01,07,55,18.80
2015,07,01,07,56,18.60
2015,07,01,07,57,18.50
2015,07,01,07,58,18.30
2015,07,01,07,59,18.10
2015,07,01,08,00,18.00
2015,07,01,08,01,17.90
2015,07,01,08,02,17.80
2015,07,01,08,03,17.70
2015,07,01,08,04,17.70
2015,07,01,08,05,17.70
2015,07,01,08,06,17.70
2015,07,01,08,07,17.80
2015,07,01,08,08,17.80
2015,07,01,08,09,17.90
2015,07,01,08,10,17.90
2015,07,01,08,11,18.00
2015,07,01,08,12,17.90
2015,07,01,08,13,17.80
2015,07,01,08,14,17.60
2015,07,01,08,15,17.40
2015,07,01,08,16,17.20
2015,07,01,08,17,16.90
2015,07,01,08,18,16.80
2015,07,01,08,19,16.60
2015,07,01,08,20,16.40
2015,07,01,08,21,16.20
2015,07,01,08,22,16.10
2015,07,01,08,23,15.90
2015,07,01,08,24,15.80
2015,07,01,08,25,15.80
2015,07,01,08,26,15.80
2015,07,01,08,27,15.80
2015,07,01,08,28,15.80
2015,07,01,08,29,15.80
2015,07,01,08,30,15.70
2015,07,01,08,31,15.70
2015,07,01,08,32,15.70
2015,07,01,08,33,15.60
2015,07,01,08,34,15.60
2015,07,01,08,35,15.50
2015,07,01,08,36,15.50
2015,07,01,08,37,15.50
2015,07,01,08,38,15.40
2015,07,01,08,39,15.30
2015,07,01,08,40,15.20
2015,07,01,08,41,15.10
2015,07,01,08,42,15.10
2015,07,01,08,43,15.10
2015,07,01,08,44,15.10
2015,07,01,08,45,15.10
2015,07,01,08,46,15.10
2015,07,01,08,47,15.10
2015,07,01,08,48,15.20
2015,07,01,08,49,15.20
2015,07,01,08,50,15.20
2015,07,01,08,51,15.20
2015,07,01,08,52,15.20
2015,07,01,08,53,15.20
2015,07,01,08,54,15.10
2015,07,01,08,55,15.10
2015,07,01,08,56,15.10
2015,07,01,08,57,15.10
2015,07,01,08,58,15.20
2015,07,01,08,59,15.20
2015,07,01,09,00,15.20
2015,07,01,09,01,15.30
2015,07,01,09,02,15.40
2015,07,01,09,03,15.40
2015,07,01,09,04,15.50
2015,07,01,09,05,15.60
2015,07,01,09,06,15.70
2015,07,01,09,07,15.80
2015,07,01,09,08,15.80
2015,07,01,09,09,15.90
2015,07,01,09,10,16.00
2015,07,01,09,11,16.00
2015,07,01,09,12,16.10
2015,07,01,09,13,16.10
2015,07,01,09,14,16.10
2015,07,01,09,15,16.10
2015,07,01,09,16,16.10
2015,07,01,09,17,16.20
2015,07,01,09,18,16.20
2015,07,01,09,19,16.30
2015,07,01,09,20,16.30
2015,07,01,09,21,16.40
2015,07,01,09,22,16.40
2015,07,01,09,23,16.40
2015,07,01,09,24,16.40
2015,07,01,09,25,16.40
2015,07,01,09,26,16.50
2015,07,01,09,27,16.50
2015,07,01,09,28,16.50
2015,07,01,09,29,16.60
2015,07,01,09,30,16.60
2015,07,01,09,31,16.70
2015,07,01,09,32,16.70
2015,07,01,09,33,16.70
2015,07,01,09,34,16.70
2015,07,01,09,35,16.70
2015,07,01,09,36,16.70
2015,07,01,09,37,16.70
2015,07,01,09,38,16.70
2015,07,01,09,39,16.70
2015,07,01,09,40,16.60
2015,07,01,09,41,16.50
2015,07,01,09,42,16.50
2015,07,01,09,43,16.50
2015,07,01,09,44,16.50
2015,07,01,09,45,16.50
2015,07,01,09,46,16.60
2015,07,01,09,47,16.60
2015,07,01,09,48,16.70
2015,07,01,09,49,16.70
2015,07,01,09,50,16.80
2015,07,01,09,51,16.80
2015,07,01,09,52,16.90
2015,07,01,09,53,17.00
2015,07,01,09,54,17.00
2015,07,01,09,55,17.10
2015,07,01,09,56,17.20
2015,07,01,09,57,17.20
2015,07,01,09,58,17.30
2015,07,01,09,59,17.30
2015,07,01,10,00,17.40
2015,07,01,10,01,17.50
2015,07,01,10,02,17.50
2015,07,01,10,03,17.60
2015,07,01,10,04,17.60
2015,07,01,10,05,17.60
2015,07,01,10,06,17.60
2015,07,01,10,07,17.60
2015,07,01,10,08,17.70
2015,07,01,10,09,17.70
2015,07,01,10,10,17.70
2015,07,01,10,11,17.60
2015,07,01,10,12,17.50
2015,07,01,10,13,17.50
2015,07,01,10,14,17.40
2015,07,01,10,15,17.40
2015,07,01,10,16,17.50
2015,07,01,10,17,17.50
2015,07,01,10,18,17.50
2015,07,01,10,19,17.50
2015,07,01,10,20,17.60
2015,07,01,10,21,17.60
2015,07,01,10,22,17.70
2015,07,01,10,23,17.70
2015,07,01,10,24,17.70
2015,07,01,10,25,17.70
2015,07,01,10,26,17.70
2015,07,01,10,27,17.80
2015,07,01,10,28,17.80
2015,07,01,10,29,17.80
2015,07,01,10,30,17.80
2015,07,01,10,31,17.90
2015,07,01,10,32,17.90
2015,07,01,10,33,18.00
2015,07,01,10,34,18.00
2015,07,01,10,35,18.10
2015,07,01,10,36,18.10
2015,07,01,10,37,18.20
2015,07,01,10,38,18.20
2015,07,01,10,39,18.20
2015,07,01,10,40,18.30
2015,07,01,10,41,18.40
2015,07,01,10,42,18.40
2015,07,01,10,43,18.50
2015,07,01,10,44,18.50
2015,07,01,10,45,18.60
2015,07,01,10,46,18.70
2015,07,01,10,47,18.70
2015,07,01,10,48,18.80
2015,07,01,10,49,18.90
2015,07,01,10,50,18.90
2015,07,01,10,51,19.00
2015,07,01,10,52,19.00
2015,07,01,10,53,19.10
2015,07,01,10,54,19.20
2015,07,01,10,55,19.20
2015,07,01,10,56,19.20
2015,07,01,10,57,19.20
2015,07,01,10,58,19.30
2015,07,01,10,59,19.30
2015,07,01,11,00,19.30
2015,07,01,11,01,19.30
2015,07,01,11,02,19.30
2015,07,01,11,03,19.30
2015,07,01,11,04,19.30
2015,07,01,11,05,19.20
2015,07,01,11,06,19.20
2015,07,01,11,07,19.20
2015,07,01,11,08,19.20
2015,07,01,11,09,19.30
2015,07,01,11,10,19.30
2015,07,01,11,11,19.40
2015,07,01,11,12,19.40
2015,07,01,11,13,19.40
2015,07,01,11,14,19.50
2015,07,01,11,15,19.50
2015,07,01,11,16,19.60
2015,07,01,11,17,19.50
2015,07,01,11,18,19.50
2015,07,01,11,19,19.50
2015,07,01,11,20,19.40
2015,07,01,11,21,19.40
2015,07,01,11,22,19.40
2015,07,01,11,23,19.50
2015,07,01,11,24,19.50
2015,07,01,11,25,19.60
2015,07,01,11,26,19.60
2015,07,01,11,27,19.60
2015,07,01,11,28,19.60
2015,07,01,11,29,19.70
2015,07,01,11,30,19.70
2015,07,01,11,31,19.70
2015,07,01,11,32,19.70
2015,07,01,11,33,19.70
2015,07,01,11,34,19.70
2015,07,01,11,35,19.70
2015,07,01,11,36,19.70
2015,07,01,11,37,19.80
2015,07,01,11,38,19.90
2015,07,01,11,39,19.90
2015,07,01,11,40,19.90
2015,07,01,11,41,19.90
2015,07,01,11,42,19.90
2015,07,01,11,43,19.90
2015,07,01,11,44,19.90
2015,07,01,11,45,19.80
2015,07,01,11,46,19.80
2015,07,01,11,47,19.70
2015,07,01,11,48,19.60
2015,07,01,11,49,19.50
2015,07,01,11,50,19.40
2015,07,01,11,51,19.30
2015,07,01,11,52,19.20
2015,07,01,11,53,19.20
2015,07,01,11,54,19.20
2015,07,01,11,55,19.20
2015,07,01,11,56,19.20
2015,07,01,11,57,19.20
2015,07,01,11,58,19.20
2015,07,01,11,59,19.30
2015,07,01,12,00,19.40
2015,07,01,12,01,19.50
2015,07,01,12,02,19.60
2015,07,01,12,03,19.70
2015,07,01,12,04,19.70
2015,07,01,12,05,19.90
2015,07,01,12,06,20.00
2015,07,01,12,07,20.10
2015,07,01,12,08,20.20
2015,07,01,12,09,20.40
2015,07,01,12,10,20.50
2015,07,01,12,11,20.60
2015,07,01,12,12,20.80
2015,07,01,12,13,20.90
2015,07,01,12,14,20.90
2015,07,01,12,15,20.90
2015,07,01,12,16,20.90
2015,07,01,12,17,20.90
2015,07,01,12,18,20.90
2015,07,01,12,19,20.80
2015,07,01,12,20,20.90
2015,07,01,12,21,21.00
2015,07,01,12,22,21.00
2015,07,01,12,23,21.00
2015,07,01,12,24,21.00
2015,07,01,12,25,21.00
2015,07,01,12,26,21.10
2015,07,01,12,27,21.10
2015,07,01,12,28,21.10
2015,07,01,12,29,21.10
2015,07,01,12,30,21.10
2015,07,01,12,31,21.10
2015,07,01,12,32,21.10
2015,07,01,12,33,21.10
2015,07,01,12,34,21.10
2015,07,01,12,35,21.20
2015,07,01,12,36,21.20
2015,07,01,12,37,21.20
2015,07,01,12,38,21.30
2015,07,01,12,39,21.40
2015,07,01,12,40,21.40
2015,07,01,12,41,21.40
2015,07,01,12,42,21.50
2015,07,01,12,43,21.60
2015,07,01,12,44,21.70
2015,07,01,12,45,21.80
2015,07,01,12,46,21.90
2015,07,01,12,47,22.00
2015,07,01,12,48,22.00
2015,07,01,12,49,21.90
2015,07,01,12,50,21.90
2015,07,01,12,51,21.90
2015,07,01,12,52,21.90
2015,07,01,12,53,21.80
2015,07,01,12,54,21.80
2015,07,01,12,55,21.70
2015,07,01,12,56,21.70
2015,07,01,12,57,21.60
2015,07,01,12,58,21.50
2015,07,01,12,59,21.40
2015,07,01,13,00,21.20
2015,07,01,13,01,21.20
2015,07,01,13,02,21.20
2015,07,01,13,03,21.20
2015,07,01,13,04,21.30
2015,07,01,13,05,21.50
2015,07,01,13,06,21.60
2015,07,01,13,07,21.70
2015,07,01,13,08,21.80
2015,07,01,13,09,21.80
2015,07,01,13,10,21.90
2015,07,01,13,11,22.00
2015,07,01,13,12,22.10
2015,07,01,13,13,22.20
2015,07,01,13,14,22.30
2015,07,01,13,15,22.30
2015,07,01,13,16,22.30
2015,07,01,13,17,22.20
2015,07,01,13,18,22.10
2015,07,01,13,19,22.00
2015,07,01,13,20,21.90
2015,07,01,13,21,21.90
2015,07,01,13,22,21.90
2015,07,01,13,23,21.80
2015,07,01,13,24,21.80
2015,07,01,13,25,21.70
2015,07,01,13,26,21.60
2015,07,01,13,27,21.60
2015,07,01,13,28,21.70
2015,07,01,13,29,21.80
2015,07,01,13,30,21.90
2015,07,01,13,31,22.00
2015,07,01,13,32,22.00
2015,07,01,13,33,22.00
2015,07,01,13,34,22.00
2015,07,01,13,35,21.90
2015,07,01,13,36,21.90
2015,07,01,13,37,21.70
2015,07,01,13,38,21.50
2015,07,01,13,39,21.30
2015,07,01,13,40,21.20
2015,07,01,13,41,21.20
2015,07,01,13,42,21.10
2015,07,01,13,43,21.00
2015,07,01,13,44,21.00
2015,07,01,13,45,21.00
2015,07,01,13,46,21.00
2015,07,01,13,47,21.10
2015,07,01,13,48,21.20
2015,07,01,13,49,21.40
2015,07,01,13,50,21.40
2015,07,01,13,51,21.40
2015,07,01,13,52,21.30
2015,07,01,13,53,21.30
2015,07,01,13,54,21.30
2015,07,01,13,55,21.30
2015,07,01,13,56,21.30
2015,07,01,13,57,21.30
2015,07,01,13,58,21.40
2015,07,01,13,59,21.50
2015,07,01,14,00,21.60
2015,07,01,14,01,21.80
2015,07,01,14,02,21.90
2015,07,01,14,03,22.00
2015,07,01,14,04,22.10
2015,07,01,14,05,22.20
2015,07,01,14,06,22.20
2015,07,01,14,07,22.30
2015,07,01,14,08,22.40
2015,07,01,14,09,22.40
2015,07,01,14,10,22.50
2015,07,01,14,11,22.50
2015,07,01,14,12,22.50
2015,07,01,14,13,22.50
2015,07,01,14,14,22.50
2015,07,01,14,15,22.60
2015,07,01,14,16,22.70
2015,07,01,14,17,22.70
2015,07,01,14,18,22.70
2015,07,01,14,19,22.80
2015,07,01,14,20,22.80
2015,07,01,14,21,22.90
2015,07,01,14,22,22.90
2015,07,01,14,23,23.00
2015,07,01,14,24,23.10
2015,07,01,14,25,23.20
2015,07,01,14,26,23.30
2015,07,01,14,27,23.50
2015,07,01,14,28,23.70
2015,07,01,14,29,23.80
2015,07,01,14,30,24.00
2015,07,01,14,31,24.00
2015,07,01,14,32,24.10
2015,07,01,14,33,24.20
2015,07,01,14,34,24.20
2015,07,01,14,35,24.30
2015,07,01,14,36,24.30
2015,07,01,14,37,24.30
2015,07,01,14,38,24.30
2015,07,01,14,39,24.40
2015,07,01,14,40,24.40
2015,07,01,14,41,24.30
2015,07,01,14,42,24.30
2015,07,01,14,43,24.10
2015,07,01,14,44,24.10
2015,07,01,14,45,23.90
2015,07,01,14,46,23.80
2015,07,01,14,47,23.70
2015,07,01,14,48,23.60
2015,07,01,14,49,23.60
2015,07,01,14,50,23.60
2015,07,01,14,51,23.50
2015,07,01,14,52,23.30
2015,07,01,14,53,23.10
2015,07,01,14,54,23.00
2015,07,01,14,55,22.90
2015,07,01,14,56,22.80
2015,07,01,14,57,22.70
2015,07,01,14,58,22.70
2015,07,01,14,59,22.70
2015,07,01,15,00,22.70
2015,07,01,15,01,22.70
2015,07,01,15,02,22.70
2015,07,01,15,03,22.60
2015,07,01,15,04,22.60
2015,07,01,15,05,22.60
2015,07,01,15,06,22.60
2015,07,01,15,07,22.60
2015,07,01,15,08,22.60
2015,07,01,15,09,22.50
2015,07,01,15,10,22.50
2015,07,01,15,11,22.30
2015,07,01,15,12,22.10
2015,07,01,15,13,22.00
2015,07,01,15,14,21.80
2015,07,01,15,15,21.70
2015,07,01,15,16,21.60
2015,07,01,15,17,21.50
2015,07,01,15,18,21.40
2015,07,01,15,19,21.40
2015,07,01,15,20,21.40
2015,07,01,15,21,21.40
2015,07,01,15,22,21.40
2015,07,01,15,23,21.30
2015,07,01,15,24,21.20
2015,07,01,15,25,21.10
2015,07,01,15,26,21.00
2015,07,01,15,27,21.00
2015,07,01,15,28,21.10
2015,07,01,15,29,21.10
2015,07,01,15,30,21.20
2015,07,01,15,31,21.20
2015,07,01,15,32,21.30
2015,07,01,15,33,21.30
2015,07,01,15,34,21.30
2015,07,01,15,35,21.40
2015,07,01,15,36,21.40
2015,07,01,15,37,21.50
2015,07,01,15,38,21.60
2015,07,01,15,39,21.70
2015,07,01,15,40,21.80
2015,07,01,15,41,21.90
2015,07,01,15,42,21.90
2015,07,01,15,43,22.00
2015,07,01,15,44,22.20
2015,07,01,15,45,22.30
2015,07,01,15,46,22.40
2015,07,01,15,47,22.50
2015,07,01,15,48,22.60
2015,07,01,15,49,22.60
2015,07,01,15,50,22.70
2015,07,01,15,51,22.70
2015,07,01,15,52,22.90
2015,07,01,15,53,23.00
2015,07,01,15,54,23.10
2015,07,01,15,55,23.10
2015,07,01,15,56,23.10
2015,07,01,15,57,23.20
2015,07,01,15,58,23.20
2015,07,01,15,59,23.20
2015,07,01,16,00,23.30
2015,07,01,16,01,23.30
2015,07,01,16,02,23.30
2015,07,01,16,03,23.10
2015,07,01,16,04,22.90
2015,07,01,16,05,22.70
2015,07,01,16,06,22.60
2015,07,01,16,07,22.50
2015,07,01,16,08,22.40
2015,07,01,16,09,22.40
2015,07,01,16,10,22.40
2015,07,01,16,11,22.50
2015,07,01,16,12,22.60
2015,07,01,16,13,22.70
2015,07,01,16,14,22.80
2015,07,01,16,15,22.80
2015,07,01,16,16,22.80
2015,07,01,16,17,22.90
2015,07,01,16,18,23.00
2015,07,01,16,19,23.10
2015,07,01,16,20,23.20
2015,07,01,16,21,23.30
2015,07,01,16,22,23.40
2015,07,01,16,23,23.40
2015,07,01,16,24,23.40
2015,07,01,16,25,23.50
2015,07,01,16,26,23.50
2015,07,01,16,27,23.60
2015,07,01,16,28,23.70
2015,07,01,16,29,23.80
2015,07,01,16,30,23.80
2015,07,01,16,31,23.90
2015,07,01,16,32,24.00
2015,07,01,16,33,24.10
2015,07,01,16,34,24.20
2015,07,01,16,35,24.30
2015,07,01,16,36,24.40
2015,07,01,16,37,24.40
2015,07,01,16,38,24.50
2015,07,01,16,39,24.50
2015,07,01,16,40,24.60
2015,07,01,16,41,24.60
2015,07,01,16,42,24.60
2015,07,01,16,43,24.70
2015,07,01,16,44,24.70
2015,07,01,16,45,24.60
2015,07,01,16,46,24.60
2015,07,01,16,47,24.60
2015,07,01,16,48,24.60
2015,07,01,16,49,24.60
2015,07,01,16,50,24.60
2015,07,01,16,51,24.60
2015,07,01,16,52,24.60
2015,07,01,16,53,24.60
2015,07,01,16,54,24.60
2015,07,01,16,55,24.60
2015,07,01,16,56,24.60
2015,07,01,16,57,24.60
2015,07,01,16,58,24.60
2015,07,01,16,59,24.40
2015,07,01,17,00,24.40
2015,07,01,17,01,24.20
2015,07,01,17,02,24.10
2015,07,01,17,03,24.00
2015,07,01,17,04,23.90
2015,07,01,17,05,23.80
2015,07,01,17,06,23.80
2015,07,01,17,07,23.70
2015,07,01,17,08,23.60
2015,07,01,17,09,23.50
2015,07,01,17,10,23.40
2015,07,01,17,11,23.40
2015,07,01,17,12,23.40
2015,07,01,17,13,23.30
2015,07,01,17,14,23.30
2015,07,01,17,15,23.20
2015,07,01,17,16,23.20
2015,07,01,17,17,23.20
2015,07,01,17,18,23.20
2015,07,01,17,19,23.20